Powrót do katalogu

STARLINK-33531

AktywnyŁącznośćVLEO
NORAD 63399·PAYLOAD·🇺🇸 United States

Wystrzelony Mar 31, 2025 z Cape Canaveral Space Force Station

Loading…

Następne Przeloty (najbliższe 24 godziny)

TLE

ŚwieżeSource: CelesTrak SupGP

Epoka: Sep 15, 2026, 03:52 UTC

1 63399C 25065A   26258.16159722  .00030543  00000+0  11061-2 0  2587
2 63399  43.0025 116.9708 0001453 273.2643 248.1473 15.27568634    15

Śledź STARLINK-33531 w czasie rzeczywistym z AllMySat

Download on the App Store